Weather History for Palma de Mallorca, Spain

Change the Weather History Date:

Monday, November 19, 2012

  Actual Average Record
Temperature  
Mean Temperature 58 °F -  
Max Temperature 66 °F 61 °F 69 °F (2006)
Min Temperature 50 °F 43 °F 37 °F (2000)
Degree Days  
Heating Degree Days 7    
Growing Degree Days 8 (Base 50)    
Moisture  
Dew Point 54 °F    
Average Humidity 80    
Maximum Humidity 100    
Minimum Humidity 47    
Precipitation  
Precipitation 0.01 in 0.06 in - ()
Sea Level Pressure  
Sea Level Pressure 29.94 in    
Wind  
Wind Speed 5 mph ()    
Max Wind Speed 14 mph    
Max Gust Speed -    
Visibility 6.8 miles    
Events      
Averages and records for this station are not official NWS values.
T = Trace of Precipitation, MM = Missing Value Source: Averaged Metar Reports

Daily Weather History Graph

Daily Weather History Graph

Search for Another Location

Airport:

Trip Planner

Search our weather history database for the weather conditions in past years. The results will help you decide how hot, cold, wet, or windy it might be!

Date:

Astronomy

Nov. 19, 2012 Rise Set
Actual Time 7:37 AM CET 5:30 PM CET
Civil Twilight 7:08 AM CET 5:59 PM CET
Nautical Twilight 6:36 AM CET 6:32 PM CET
Astronomical Twilight 6:04 AM CET 7:04 PM CET
Moon 12:32 PM CET (11/19) 11:40 PM CET (11/19)
Length of Visible Light 10h 50m
Length of Day
9h 52m
Waxing Crescent, 38% of the Moon is Illuminated
Nov 19
Waxing Crescent
Nov 20
First Quarter
Nov 28
Full
Dec 6
Last Quarter
Dec 13
New

Hourly Weather History & Observations

Time (CET) Temp. Dew Point Humidity Pressure Visibility Wind Dir Wind Speed Gust Speed Precip Events Conditions
12:00 AM 57.2 °F 57.2 °F 100% 29.83 in 6.2 mi Variable 1.2 mph - N/A   Mostly Cloudy
12:30 AM 57.2 °F 57.2 °F 100% 29.83 in 6.2 mi NNE 2.3 mph - N/A   Mostly Cloudy
1:00 AM 57 °F 55 °F 90% 29.84 in 9 mi Calm Calm - -   Partly Cloudy
1:00 AM 59.0 °F 57.2 °F 94% 29.83 in 6.2 mi Calm Calm - N/A   Mostly Cloudy
1:30 AM 59.0 °F 57.2 °F 94% 29.83 in 6.2 mi Variable 1.2 mph - N/A   Mostly Cloudy
2:00 AM 59.0 °F 57.2 °F 94% 29.83 in 6.2 mi ENE 1.2 mph - N/A   Mostly Cloudy
2:30 AM 59.0 °F 57.2 °F 94% 29.83 in 6.2 mi NNE 2.3 mph - N/A   Mostly Cloudy
3:00 AM 59.0 °F 57.2 °F 94% 29.83 in 6.2 mi Calm Calm - N/A   Mostly Cloudy
3:30 AM 59.0 °F 57.2 °F 94% 29.83 in 6.2 mi NE 1.2 mph - N/A   Mostly Cloudy
4:00 AM 59.0 °F 57.2 °F 94% 29.83 in 6.2 mi ENE 4.6 mph - N/A   Mostly Cloudy
4:30 AM 60.8 °F 57.2 °F 88% 29.83 in 6.2 mi ENE 10.4 mph - N/A   Mostly Cloudy
5:00 AM 60.8 °F 57.2 °F 88% 29.86 in 6.2 mi NE 9.2 mph - N/A   Mostly Cloudy
5:30 AM 60.8 °F 57.2 °F 88% 29.86 in 6.2 mi NE 12.7 mph - N/A   Mostly Cloudy
6:00 AM 60.8 °F 57.2 °F 88% 29.86 in 6.2 mi NE 10.4 mph - N/A   Mostly Cloudy
6:30 AM 60.8 °F 57.2 °F 88% 29.86 in 6.2 mi NNE 9.2 mph - N/A   Scattered Clouds
7:00 AM 59 °F 54 °F 79% 29.89 in 9 mi NNE 9.2 mph - -   Scattered Clouds
7:00 AM 60.8 °F 57.2 °F 88% 29.89 in 6.2 mi NNE 11.5 mph - N/A   Scattered Clouds
7:30 AM 59.0 °F 57.2 °F 94% 29.89 in 6.2 mi NE 11.5 mph - N/A   Mostly Cloudy
8:00 AM 59.0 °F 57.2 °F 94% 29.89 in 6.2 mi NE 9.2 mph - N/A   Mostly Cloudy
9:00 AM 60.8 °F 55.4 °F 82% 29.92 in 6.2 mi NNE 6.9 mph - N/A   Scattered Clouds
9:30 AM 62.6 °F 55.4 °F 77% 29.95 in 6.2 mi NE 9.2 mph - N/A   Scattered Clouds
10:30 AM 62.6 °F 55.4 °F 77% 29.95 in 6.2 mi NE 13.8 mph - N/A   Scattered Clouds
11:00 AM 62.6 °F 55.4 °F 77% 29.95 in 6.2 mi NE 9.2 mph - N/A   Partly Cloudy
11:30 AM 64.4 °F 55.4 °F 73% 29.95 in 6.2 mi NE 11.5 mph - N/A   Partly Cloudy
12:00 PM 64.4 °F 55.4 °F 73% 29.95 in 6.2 mi NE 11.5 mph - N/A   Partly Cloudy
12:30 PM 66.2 °F 53.6 °F 64% 29.95 in 6.2 mi ENE 12.7 mph - N/A   Partly Cloudy
1:00 PM 65 °F 50 °F 47% 29.96 in 19 mi ENE 11.5 mph - -   Scattered Clouds
1:00 PM 66.2 °F 53.6 °F 64% 29.95 in 6.2 mi NE 13.8 mph - N/A   Partly Cloudy
1:30 PM 66.2 °F 51.8 °F 60% 29.95 in 6.2 mi ENE 13.8 mph - N/A   Partly Cloudy
2:00 PM 66.2 °F 51.8 °F 60% 29.95 in 6.2 mi ENE 11.5 mph - N/A   Partly Cloudy
2:30 PM 66.2 °F 50.0 °F 56% 29.95 in 6.2 mi ENE 12.7 mph - N/A   Partly Cloudy
3:00 PM 66.2 °F 48.2 °F 52% 29.95 in 6.2 mi ENE 10.4 mph - N/A   Partly Cloudy
3:30 PM 66.2 °F 50.0 °F 56% 29.95 in 6.2 mi ENE 9.2 mph - N/A   Partly Cloudy
4:00 PM 66.2 °F 50.0 °F 56% 29.98 in 6.2 mi ENE 6.9 mph - N/A   Partly Cloudy
4:30 PM 64.4 °F 50.0 °F 59% 29.98 in 6.2 mi ENE 8.1 mph - N/A   Partly Cloudy
5:00 PM 64.4 °F 51.8 °F 64% 29.98 in 6.2 mi Variable 2.3 mph - N/A   Partly Cloudy
5:30 PM 62.6 °F 51.8 °F 68% 29.98 in 6.2 mi Calm Calm - N/A   Partly Cloudy
6:00 PM 60.8 °F 53.6 °F 77% 30.01 in 6.2 mi Variable 2.3 mph - N/A   Partly Cloudy
6:30 PM 59.0 °F 51.8 °F 77% 30.01 in 6.2 mi Calm Calm - N/A   Partly Cloudy
7:00 PM 58 °F 49 °F 64% 30.03 in 16 mi Calm Calm - -   Scattered Clouds
7:00 PM 59.0 °F 51.8 °F 77% 30.01 in 6.2 mi NW 2.3 mph - N/A   Partly Cloudy
7:30 PM 57.2 °F 51.8 °F 82% 30.04 in 6.2 mi Calm Calm - N/A   Partly Cloudy
8:00 PM 57.2 °F 53.6 °F 88% 30.04 in 6.2 mi North 3.5 mph - N/A   Partly Cloudy
8:30 PM 55.4 °F 51.8 °F 88% 30.04 in 6.2 mi NE 2.3 mph - N/A   Partly Cloudy
9:00 PM 53.6 °F 50.0 °F 88% 30.04 in 6.2 mi Calm Calm - N/A   Partly Cloudy
9:30 PM 53.6 °F 50.0 °F 88% 30.04 in 6.2 mi Calm Calm - N/A   Partly Cloudy
10:00 PM 51.8 °F 50.0 °F 94% 30.04 in 6.2 mi Variable 1.2 mph - N/A   Partly Cloudy
10:30 PM 51.8 °F 50.0 °F 94% 30.04 in 6.2 mi Calm Calm - N/A   Partly Cloudy
11:00 PM 50.0 °F 50.0 °F 100% 30.04 in - Calm Calm - N/A   Clear
11:30 PM 50.0 °F 48.2 °F 94% 30.04 in - Calm Calm - N/A   Clear